Regional Weather Roundup
Issued by NWS Cleveland, OH

Home | Current Version | Previous Version | Text Only | Print | Product List | Glossary Off
Versions: 1 2 3 4 5 6 7 8 9 10 11 12 13 14 15 16 17 18 19 20 21 22 23 24 25 26 27 28 29 30 31 32 33 34 35 36 37 38 39 40 41 42 43 44 45 46 47 48 49 50

000
ASUS41 KCLE 211712
RWRCLE
OHIO REGIONAL WEATHER ROUNDUP
NATIONAL WEATHER SERVICE WILMINGTON, OH
1200 PM EST SUN JAN 21 2018

NOTE: "FAIR" INDICATES FEW OR NO CLOUDS BELOW 12,000 FEET WITH NO
SIGNIFICANT WEATHER AND/OR OBSTRUCTIONS TO VISIBILITY.

OHZ001>008-015>018-024>027-034-035-043-044-211800-
   NORTHWEST OHIO

CITY           SKY/WX    TMP DP  RH WIND       PRES   REMARKS
DEFIANCE       FOG       41  40  96 S5        30.03F VSB 1/2
FINDLAY        CLOUDY    43  41  93 S7        30.04F FOG
TOLEDO EXPRESS CLOUDY    41  41 100 S3        30.04F FOG
TOLEDO EXEC    CLOUDY    42  41  96 S5        30.05F FOG
LIMA           CLOUDY    44  44 100 S9        30.04F
$$

OHZ009>014-019>023-028>033-038-089-211800-
   NORTHEAST OHIO

CITY           SKY/WX    TMP DP  RH WIND       PRES   REMARKS
CLE-HOPKINS    CLOUDY    43  41  93 S6        30.10F FOG
CLE-LAKEFRONT  CLOUDY    43  40  89 S7        30.08F FOG
CUY CO. ARPT   FOG       43  34  70 S7        30.09F VSB 3/4
LORAIN-ELYRIA  FOG       40  36  86 S7        30.08F VSB 1/4
ASHTABULA      FOG       38  38 100 S6        30.09F VSB 1/2
AKRON-CANTON   CLOUDY    41  39  93 S7        30.09F FOG
WOOSTER        CLOUDY    41  40  96 SE5       30.08F FOG
MANSFIELD      CLOUDY    44  42  93 S9        30.06F
YOUNGSTOWN     FOG       40  40 100 S5        30.09F VSB 1/8
$$

OHZ042-051>053-060>062-070>072-077>081-211800-
  SOUTHWEST OHIO

CITY           SKY/WX    TMP DP  RH WIND       PRES   REMARKS
CINC-COVINGTON CLOUDY    53  45  74 S10       30.09F
CINC-LUNKEN    CLOUDY    55  46  71 SW13      30.11F
HAMILTON       CLOUDY    54  45  71 SW7       30.10F
DAYTON         CLOUDY    49  45  86 SW13      30.08F
WRIGHT-PAT AFB CLOUDY    51  42  70 S12       30.07F
DAYTON GENERAL CLOUDY    51  43  74 SW10      30.07F
WILMINGTON     CLOUDY    48  43  82 S7        30.09F
$$

OHZ036-037-039>041-045>050-054>059-063>069-073>076-082>088-211800-
  CENTRAL AND SOUTHEAST OHIO

CITY           SKY/WX    TMP DP  RH WIND       PRES   REMARKS
COLUMBUS       CLOUDY    46  43  89 S6        30.10F
OSU AIRPORT    CLOUDY    45  41  86 S5        30.09F
BOLTON FIELD   CLOUDY    45  39  81 S5        30.10F
RICKENBACK AFB CLOUDY    45  41  85 SW6       30.10F
NEWARK         CLOUDY    42  41  96 CALM      30.09F
MARION         CLOUDY    42  39  89 S8        30.07F
LANCASTER      CLOUDY    48  40  73 S3        30.11F
ZANESVILLE     CLOUDY    45  39  79 S6        30.11F
NEW PHILLY     CLOUDY    42  40  92 SE6       30.11F
$$



USA.gov is the U.S. government's official web portal to all federal, state and local government web resources and services.